Panama City Beach Gulf Coast Weather Center

Moon Phase Calendar



Online Cameras

 


      

Current Conditions in Panama City
5/19/2022 8:38:40 PM

79°F
Feels Like 79
Clear
Humidity
85%
Pressure
29.88"
Wind
5.8 mph (SSW)
Dew Point
74°F
UV Index
0/10 (Low)
Visibility
6 mi

Hourly Forecast

Date & Time Thu, May 19
8:00 PM
Thu, May 19
9:00 PM
Thu, May 19
10:00 PM
Thu, May 19
11:00 PM
Fri, May 20
12:00 AM
Fri, May 20
1:00 AM
Fri, May 20
2:00 AM
Fri, May 20
3:00 AM
Fri, May 20
4:00 AM
Fri, May 20
5:00 AM
Fri, May 20
6:00 AM
Fri, May 20
7:00 AM
Fri, May 20
8:00 AM
Fri, May 20
9:00 AM
Fri, May 20
10:00 AM
Fri, May 20
11:00 AM
Fri, May 20
12:00 PM
Fri, May 20
1:00 PM
Fri, May 20
2:00 PM
Fri, May 20
3:00 PM
Fri, May 20
4:00 PM
Fri, May 20
5:00 PM
Fri, May 20
6:00 PM
Fri, May 20
7:00 PM
Fri, May 20
8:00 PM
Fri, May 20
9:00 PM
Fri, May 20
10:00 PM
Fri, May 20
11:00 PM
Sat, May 21
12:00 AM
Sat, May 21
1:00 AM
Sat, May 21
2:00 AM
Sat, May 21
3:00 AM
Sat, May 21
4:00 AM
Sat, May 21
5:00 AM
Sat, May 21
6:00 AM
Sat, May 21
7:00 AM
Sat, May 21
8:00 AM
Sat, May 21
9:00 AM
Sat, May 21
10:00 AM
Sat, May 21
11:00 AM
Sat, May 21
12:00 PM
Sat, May 21
1:00 PM
Sat, May 21
2:00 PM
Sat, May 21
3:00 PM
Sat, May 21
4:00 PM
Sat, May 21
5:00 PM
Sat, May 21
6:00 PM
Sat, May 21
7:00 PM
Condition
Clouds

Clear

Clouds

Clouds

Clouds

Clouds

Clouds

Clouds

Clouds

Clouds

Clouds

Clouds

Clouds

Clouds

Rain

Rain

Rain

Rain

Rain

Rain

Rain

Rain

Clouds

Clouds

Clear

Clear

Clear

Clear

Clear

Clear

Rain

Clear

Clear

Rain

Rain

Rain

Clear

Rain

Rain

Rain

Rain

Rain

Rain

Rain

Clouds

Rain

Rain

Rain
Temperature 79°F79°F79°F78°F78°F77°F77°F76°F76°F76°F76°F78°F80°F82°F83°F84°F84°F84°F84°F84°F83°F83°F82°F80°F78°F78°F77°F77°F77°F76°F76°F77°F77°F76°F76°F78°F81°F83°F85°F86°F86°F84°F83°F82°F82°F82°F80°F77°F
Feels Like 79°F79°F80°F80°F79°F79°F78°F78°F77°F77°F77°F79°F83°F85°F87°F88°F89°F89°F88°F88°F88°F87°F85°F80°F80°F79°F79°F78°F78°F78°F77°F78°F78°F78°F78°F80°F85°F87°F89°F89°F89°F88°F86°F85°F85°F85°F83°F77°F
Cloudiness 20%0%20%40%60%79%72%75%81%86%85%83%75%55%43%52%60%60%59%56%41%31%25%21%0%0%0%0%0%0%0%1%6%15%13%12%0%1%5%10%28%40%100%100%100%100%98%96%
Visibility 6 mi6 mi6 mi6 mi6 mi6 mi6 mi6 mi6 mi6 mi6 mi6 mi6 mi6 mi6 mi6 mi6 mi6 mi6 mi6 mi6 mi6 mi6 mi6 mi6 mi6 mi6 mi6 mi6 mi6 mi6 mi6 mi6 mi6 mi6 mi6 mi6 mi6 mi6 mi6 mi6 mi6 mi6 mi6 mi6 mi6 mi6 mi6 mi
Precipitation 0%0%0%0%0%0%0%0%0%0%0%0%9%5%36%23%34%44%43%46%50%50%47%47%7%15%19%33%23%15%25%33%39%27%50%52%27%55%59%61%61%61%71%69%69%71%78%96%
Humidity 83%85%84%85%85%85%85%84%84%83%83%77%71%68%67%65%64%63%62%63%64%65%68%73%80%84%86%87%86%86%86%86%86%88%90%84%74%65%58%55%57%59%60%60%63%63%65%72%
Dew Point 73°F74°F73°F73°F73°F73°F72°F71°F71°F70°F70°F70°F70°F70°F70°F70°F70°F70°F69°F70°F69°F69°F70°F71°F72°F72°F73°F72°F72°F72°F72°F72°F72°F73°F73°F73°F72°F70°F68°F67°F68°F68°F67°F67°F68°F68°F67°F67°F
Pressure 29.88"29.88"29.88"29.88"29.91"29.91"29.91"29.88"29.91"29.91"29.91"29.94"29.94"29.94"29.97"29.97"29.97"29.97"29.97"29.94"29.94"29.94"29.94"29.94"29.97"30"30.03"30.03"30"30"30"30"30"30.03"30.06"30.06"30.06"30.09"30.09"30.09"30.12"30.12"30.15"30.12"30.09"30.12"30.15"30.15"
Wind Speed 7.6 mph7.9 mph8.7 mph9 mph9.1 mph8.6 mph8.8 mph7.9 mph7.4 mph7.6 mph7.5 mph8.2 mph11 mph12.2 mph13 mph13.3 mph13.6 mph13.7 mph13.3 mph13.1 mph12.2 mph11.6 mph9.6 mph8.3 mph6.7 mph6.2 mph6.8 mph7.5 mph8.6 mph9 mph8 mph8.9 mph8.5 mph7 mph6.8 mph6 mph8.5 mph9.3 mph10.2 mph13.3 mph15.6 mph15.6 mph15.7 mph15.5 mph15.7 mph16 mph14.8 mph11 mph
Wind
Direction
197°
SSW
192°
SSW
190°
S
193°
SSW
198°
SSW
201°
SSW
198°
SSW
193°
SSW
188°
S
184°
S
177°
S
173°
S
172°
S
175°
S
177°
S
177°
S
180°
S
184°
S
186°
S
187°
S
186°
S
193°
SSW
197°
SSW
193°
SSW
179°
S
162°
SSE
144°
SE
149°
SSE
145°
SE
150°
SSE
167°
SSE
175°
S
186°
S
181°
S
165°
SSE
144°
SE
148°
SSE
155°
SSE
165°
SSE
171°
S
172°
S
171°
S
175°
S
172°
S
179°
S
179°
S
183°
S
189°
S

Daily Forecast

Date High Low Precip. Humidity
Today
May 19

Clouds
86 °F
75 °F
0%
54%
Friday
May 20

Rain
84 °F
76 °F
50%
64%
Saturday
May 21

Rain
86 °F
75 °F
96%
57%
Sunday
May 22

Rain
86 °F
75 °F
100%
59%
Monday
May 23

Rain
83 °F
75 °F
54%
61%
Tuesday
May 24

Rain
87 °F
72 °F
69%
49%
Wednesday
May 25

Rain
87 °F
73 °F
62%
57%
Thursday
May 26

Rain
83 °F
77 °F
100%
71%
Friday
May 27

Rain
84 °F
76 °F
100%
67%
Saturday
May 28

Rain
84 °F
75 °F
93%
47%
Sunday
May 29

Clear
84 °F
73 °F
0%
54%
Monday
May 30

Rain
86 °F
76 °F
33%
54%
Tuesday
May 31

Clear
89 °F
76 °F
0%
49%
Wednesday
Jun 1

Clear
88 °F
77 °F
1%
48%
Thursday
Jun 2

Rain
90 °F
77 °F
24%
49%
Friday
Jun 3

Rain
89 °F
77 °F
69%
49%

Temperature 8-14 Day Outlook



Precipitation 8-14 Day Outlook




Quick Links
Panama City Beach Gulf Coast News
Panama City Beach Gulf Coast Photos
Panama City Beach Gulf Coast Videos




About Us
Contact Us
Site Map
Search Site
Advertise With Us
   
PanamaCity.USGulf.info
THE PANAMA CITY BEACH GULF COAST WEBSITE

Copyright 2022, Coastal Town
Privacy    |    Legal